When you browse on this site, cookies collect data to enhance your experience and personalize the content and advertising you see.
Visit our Privacy Policy to learn more. By continuing to use the site, you agree to this use of cookies and data.
EN

Hourly Weather Potosi

Today, 6 July, Monday

Time Temperature Precipitation Wind Pressure Humidity
00:00 +3°C° 0 mm 1 mps 463 mmHg 32%
01:00 +2°C° 0 mm 2 mps 463 mmHg 36%
02:00 +2°C° 0 mm 2 mps 462 mmHg 40%
03:00 +2°C° 0 mm 1 mps 462 mmHg 41%
04:00 +2°C° 0 mm 1 mps 462 mmHg 41%
05:00 +1°C° 0 mm 1 mps 462 mmHg 41%
06:00 +2°C° 0 mm 1 mps 463 mmHg 40%
07:00 +3°C° 0 mm 1 mps 464 mmHg 38%
08:00 +3°C° 0 mm 2 mps 464 mmHg 37%
09:00 +5°C° 0 mm 2 mps 466 mmHg 33%
10:00 +7°C° 0 mm 3 mps 467 mmHg 28%
11:00 +10°C° 0 mm 4 mps 468 mmHg 24%
12:00 +10°C° 0 mm 5 mps 469 mmHg 23%
13:00 +11°C° 0 mm 7 mps 469 mmHg 21%
14:00 +13°C° 0 mm 8 mps 469 mmHg 20%
15:00 +12°C° 0 mm 8 mps 468 mmHg 21%
16:00 +11°C° 0 mm 8 mps 467 mmHg 22%
17:00 +11°C° 0 mm 8 mps 466 mmHg 23%
18:00 +9°C° 0 mm 6 mps 466 mmHg 27%
19:00 +7°C° 0 mm 4 mps 465 mmHg 31%
20:00 +6°C° 0 mm 2 mps 464 mmHg 35%
21:00 +5°C° 0 mm 2 mps 464 mmHg 38%
22:00 +5°C° 0 mm 2 mps 464 mmHg 40%
23:00 +4°C° 0 mm 2 mps 464 mmHg 43%

Tomorrow, 7 July, Tuesday

Time Temperature Precipitation Wind Pressure Humidity
00:00 +2°C° 0 mm 3 mps 463 mmHg 39%
01:00 +2°C° 0 mm 3 mps 463 mmHg 35%
02:00 0°C° 0 mm 4 mps 462 mmHg 31%
03:00 0°C° 0 mm 4 mps 462 mmHg 30%
04:00 -1°C° 0 mm 4 mps 462 mmHg 30%
05:00 -1°C° 0 mm 5 mps 461 mmHg 29%
06:00 0°C° 0 mm 5 mps 462 mmHg 30%
07:00 0°C° 0 mm 5 mps 462 mmHg 30%
08:00 -1°C° 0 mm 6 mps 463 mmHg 31%
09:00 +2°C° 0 mm 8 mps 464 mmHg 25%
10:00 +4°C° 0 mm 11 mps 466 mmHg 19%
11:00 +8°C° 0 mm 14 mps 467 mmHg 13%
12:00 +8°C° 0 mm 14 mps 467 mmHg 12%
13:00 +9°C° 0 mm 15 mps 466 mmHg 11%
14:00 +9°C° 0 mm 15 mps 466 mmHg 10%
15:00 +8°C° 0 mm 14 mps 466 mmHg 9%
16:00 +8°C° 0 mm 14 mps 465 mmHg 9%
17:00 +7°C° 0 mm 13 mps 465 mmHg 9%
18:00 +5°C° 0 mm 10 mps 464 mmHg 12%
19:00 +3°C° 0 mm 6 mps 463 mmHg 14%
20:00 +2°C° 0 mm 3 mps 463 mmHg 16%
21:00 +1°C° 0 mm 3 mps 463 mmHg 16%
22:00 +1°C° 0 mm 2 mps 462 mmHg 17%
23:00 -1°C° 0 mm 2 mps 462 mmHg 17%

Day after tomorrow, 8 July, Wednesday

Time Temperature Precipitation Wind Pressure Humidity
00:00 -1°C° 0 mm 2 mps 462 mmHg 16%
01:00 -2°C° 0 mm 2 mps 461 mmHg 15%
02:00 -2°C° 0 mm 2 mps 461 mmHg 14%
03:00 -3°C° 0 mm 2 mps 461 mmHg 14%
04:00 -3°C° 0 mm 2 mps 461 mmHg 14%
05:00 -3°C° 0 mm 2 mps 460 mmHg 14%
06:00 -2°C° 0 mm 2 mps 461 mmHg 14%
07:00 -1°C° 0 mm 3 mps 462 mmHg 14%
08:00 0°C° 0 mm 3 mps 463 mmHg 13%
09:00 +1°C° 0 mm 4 mps 465 mmHg 11%
10:00 +4°C° 0 mm 6 mps 467 mmHg 8%
11:00 +7°C° 0 mm 8 mps 469 mmHg 6%
12:00 +9°C° 0 mm 8 mps 469 mmHg 6%
13:00 +9°C° 0 mm 8 mps 468 mmHg 6%
14:00 +9°C° 0 mm 8 mps 468 mmHg 6%
15:00 +9°C° 0 mm 8 mps 467 mmHg 6%
16:00 +8°C° 0 mm 7 mps 467 mmHg 6%
17:00 +8°C° 0 mm 6 mps 466 mmHg 6%
18:00 +5°C° 0 mm 5 mps 465 mmHg 9%
19:00 +3°C° 0 mm 3 mps 464 mmHg 11%
20:00 +2°C° 0 mm 2 mps 463 mmHg 14%
21:00 +1°C° 0 mm 2 mps 462 mmHg 13%
22:00 +1°C° 0 mm 1 mps 462 mmHg 13%
23:00 0°C° 0 mm 1 mps 462 mmHg 12%

9 July, Thursday

Time Temperature Precipitation Wind Pressure Humidity
00:00 0°C° 0 mm 1 mps 461 mmHg 12%
01:00 -1°C° 0 mm 1 mps 461 mmHg 12%
02:00 -1°C° 0 mm 1 mps 461 mmHg 12%
03:00 -2°C° 0 mm 1 mps 460 mmHg 13%
04:00 -2°C° 0 mm 1 mps 460 mmHg 13%
05:00 -3°C° 0 mm 1 mps 460 mmHg 14%
06:00 -1°C° 0 mm 1 mps 461 mmHg 14%
07:00 0°C° 0 mm 1 mps 462 mmHg 14%
08:00 +1°C° 0 mm 1 mps 464 mmHg 15%
09:00 +4°C° 0 mm 1 mps 465 mmHg 12%
10:00 +6°C° 0 mm 1 mps 467 mmHg 8%
11:00 +8°C° 0 mm 1 mps 468 mmHg 5%
12:00 +9°C° 0 mm 1 mps 468 mmHg 5%
13:00 +9°C° 0 mm 2 mps 468 mmHg 5%
14:00 +10°C° 0 mm 2 mps 468 mmHg 5%
15:00 +10°C° 0 mm 2 mps 468 mmHg 6%
16:00 +9°C° 0 mm 2 mps 467 mmHg 6%
17:00 +9°C° 0 mm 2 mps 467 mmHg 7%
18:00 +7°C° 0 mm 2 mps 466 mmHg 11%
19:00 +5°C° 0 mm 2 mps 465 mmHg 15%
20:00 +4°C° 0 mm 1 mps 464 mmHg 19%
21:00 +4°C° 0 mm 1 mps 464 mmHg 20%
22:00 +3°C° 0 mm 1 mps 464 mmHg 20%
23:00 +3°C° 0 mm 1 mps 464 mmHg 20%

10 July, Friday

Time Temperature Precipitation Wind Pressure Humidity
00:00 +3°C° 0 mm 1 mps 463 mmHg 19%
01:00 +2°C° 0 mm 1 mps 463 mmHg 18%
02:00 +2°C° 0 mm 1 mps 462 mmHg 17%
03:00 +1°C° 0 mm 1 mps 462 mmHg 16%
04:00 +1°C° 0 mm 1 mps 461 mmHg 15%
05:00 0°C° 0 mm 1 mps 461 mmHg 14%
06:00 +1°C° 0 mm 1 mps 462 mmHg 14%
07:00 +1°C° 0 mm 2 mps 463 mmHg 14%
08:00 +2°C° 0 mm 2 mps 464 mmHg 14%
09:00 +4°C° 0 mm 2 mps 466 mmHg 12%
10:00 +7°C° 0 mm 1 mps 467 mmHg 9%
11:00 +10°C° 0 mm 1 mps 468 mmHg 7%
12:00 +10°C° 0 mm 2 mps 468 mmHg 7%
13:00 +10°C° 0 mm 2 mps 468 mmHg 6%
14:00 +12°C° 0 mm 2 mps 468 mmHg 6%
15:00 +11°C° 0 mm 3 mps 468 mmHg 7%
16:00 +10°C° 0 mm 3 mps 467 mmHg 8%
17:00 +10°C° 0 mm 4 mps 467 mmHg 10%
18:00 +8°C° 0 mm 3 mps 466 mmHg 12%
19:00 +5°C° 0 mm 3 mps 465 mmHg 15%
20:00 +4°C° 0 mm 2 mps 464 mmHg 17%
21:00 +3°C° 0 mm 2 mps 463 mmHg 16%
22:00 +2°C° 0 mm 2 mps 463 mmHg 16%
23:00 +2°C° 0 mm 2 mps 463 mmHg 15%

11 July, Saturday

Time Temperature Precipitation Wind Pressure Humidity
00:00 +1°C° 0 mm 2 mps 462 mmHg 14%
01:00 -1°C° 0 mm 2 mps 461 mmHg 13%
02:00 -1°C° 0 mm 2 mps 461 mmHg 13%
03:00 -2°C° 0 mm 2 mps 461 mmHg 12%
04:00 -2°C° 0 mm 2 mps 460 mmHg 11%
05:00 -3°C° 0 mm 2 mps 460 mmHg 11%
06:00 -2°C° 0 mm 2 mps 461 mmHg 11%
07:00 -1°C° 0 mm 2 mps 462 mmHg 11%
08:00 +1°C° 0 mm 2 mps 463 mmHg 12%
09:00 +4°C° 0 mm 2 mps 465 mmHg 9%
10:00 +7°C° 0 mm 3 mps 467 mmHg 7%
11:00 +10°C° 0 mm 3 mps 469 mmHg 5%
12:00 +11°C° 0 mm 3 mps 469 mmHg 5%
13:00 +11°C° 0 mm 3 mps 469 mmHg 5%
14:00 +12°C° 0 mm 4 mps 469 mmHg 5%
15:00 +12°C° 0 mm 3 mps 468 mmHg 6%
16:00 +11°C° 0 mm 3 mps 468 mmHg 7%
17:00 +11°C° 0 mm 3 mps 467 mmHg 7%
18:00 +9°C° 0 mm 2 mps 466 mmHg 10%
19:00 +6°C° 0 mm 2 mps 465 mmHg 13%
20:00 +5°C° 0 mm 1 mps 464 mmHg 16%
21:00 +3°C° 0 mm 2 mps 463 mmHg 15%
22:00 +2°C° 0 mm 2 mps 463 mmHg 15%
23:00 +2°C° 0 mm 2 mps 463 mmHg 14%
Show more